sat.trackr.live / text

‹ back to catalog

STARLINK-34950

NORAD 65193 · 2025-175V

PAYLOAD ACTIVE UNKNOWN

§ Identity

Operator
Country
US
Launch date
2025-08-14
Launch site
AFWTR
Launch vehicle
Mass (kg)
RCS (m²)

Purposes: comms

External: N2YO · Heavens-Above · Gunter

§ Orbital elements

Epoch: 2026-05-25T02:50:05.624160Z

Period
95.64 min
Inclination
97.4532°
Eccentricity
0.0002027
Mean motion
15.05658214 rev/d
Perigee alt
548.1 km
Apogee alt
550.9 km
Semi-major
6,927.6 km
B*
2.8471e-4
RAAN
17.6614°
Arg perigee
83.6329°
Mean anomaly
276.5129°
Rev number
4,411

§ Raw data

STARLINK-349501 65193U 25175V   26145.11812065  .00004053  00000+0  28471-3 0  99922 65193  97.4532  17.6614 0002027  83.6329 276.5129 15.05658214 44112

JSON: /api/v1/satellites/65193 · /tle

For live sub-satellite position, see the globe view (requires WebGL).

§ Visibility from observer

Set your observer location to see the next 7 days of passes ≥ 10°. The values pass through the URL so the page stays shareable.

No JS? Fill the form by hand. The geolocation button needs JavaScript.